Total_Precipitation_Accumulation
0.00 0.00 0.00 0.00 0.00 0.00 0.00 0.00 0.00 0.00 0.00 0.00 0.00 0.00 0.00 0.00 0.00 0.00 0.00 0.00 0.00 0.00 0.00 0.00 0.00 0.00 0.00 0.01 0.11 0.02 0.10 0.13 0.26 0.95 1.63 2.35 2.46 1.29 0.97 0.90 0.47 0.60 0.39 0.47 1.15 0.99 1.29 1.48 1.76 1.43 1.42 1.50 0.94 1.03 1.56 2.78 3.94 3.46 3.88 3.29 2.38 2.36 1.64 2.33 1.73 1.22 1.54 0.80 0.50 0.70 0.64 0.62 0.79 0.68 0.88 0.69 1.00 0.74 1.67 1.59 1.15 0.82 0.80 0.77 0.73 0.79
0.00 0.00 0.00 0.00 0.00 0.00 0.00 0.00 0.00 0.00 0.00 0.00 0.00 0.00 0.00 0.00 0.00 0.00 0.00 0.00 0.00 0.00 0.00 0.00 0.01 0.00 0.01 0.00 0.07 0.06 0.05 0.18 0.20 0.37 1.13 1.23 1.17 0.85 0.99 0.99 0.75 0.84 1.16 1.11 0.80 0.88 0.49 1.13 1.18 0.73 1.37 0.82 0.80 1.57 2.60 1.63 2.17 2.25 3.65 2.95 1.99 1.99 2.57 2.98 2.44 1.65 1.37 1.20 1.12 0.81 1.18 1.49 1.29 1.08 1.01 0.67 1.22 1.14 1.21 1.26 1.41 1.00 0.69 0.62 0.73 0.81
0.00 0.00 0.00 0.00 0.00 0.00 0.00 0.00 0.00 0.00 0.00 0.00 0.00 0.00 0.00 0.01 0.00 0.00 0.00 0.00 0.00 0.00 0.00 0.00 0.01 0.00 0.02 0.02 0.04 0.09 0.08 0.08 0.15 0.19 0.77 0.62 1.28 1.31 1.35 1.05 0.84 1.01 1.18 0.90 1.17 0.82 0.67 0.52 0.59 0.59 0.90 0.90 1.66 2.29 2.13 1.96 1.87 2.00 2.45 1.97 2.49 4.01 5.22 4.72 3.17 2.92 1.95 2.17 1.44 1.23 1.00 1.26 1.03 1.09 1.47 0.93 1.37 1.39 1.50 1.31 0.93 1.10 0.68 0.74 1.00 1.11
0.00 0.00 0.00 0.00 0.00 0.00 0.00 0.00 0.00 0.00 0.00 0.00 0.00 0.00 0.00 0.00 0.00 0.03 0.00 0.00 0.00 0.00 0.00 0.00 0.03 0.02 0.01 0.03 0.17 0.09 0.05 0.31 0.83 1.83 1.54 0.54 0.47 0.49 0.85 0.74 0.53 0.71 0.76 0.73 0.70 0.65 0.45 0.53 0.53 0.49 1.44 2.14 1.56 1.31 1.92 1.32 2.19 2.02 2.81 3.98 4.30 3.92 3.55 2.63 2.12 2.41 2.19 1.34 2.06 2.51 1.98 1.28 1.43 1.49 1.15 0.98 1.56 0.92 0.99 0.72 0.89 1.23 0.98 0.81 0.78 1.18
0.00 0.00 0.00 0.00 0.00 0.00 0.00 0.00 0.00 0.00 0.00 0.00 0.00 0.00 0.00 0.00 0.00 0.00 0.06 0.00 0.00 0.00 0.00 0.00 0.02 0.06 0.02 0.08 0.09 0.08 0.29 0.45 0.90 2.00 1.34 1.53 0.94 0.36 0.53 0.50 0.40 0.45 0.44 0.76 0.66 0.53 0.46 0.60 0.53 1.24 0.91 1.00 1.21 1.53 1.25 1.29 1.82 1.67 2.67 2.53 2.35 2.18 2.18 2.11 2.12 2.22 2.24 2.74 2.32 2.37 1.63 1.23 1.13 1.05 1.17 0.78 0.79 0.82 0.98 0.93 0.65 1.12 0.85 0.71 0.77 0.81
0.00 0.01 0.00 0.00 0.00 0.00 0.00 0.00 0.00 0.00 0.00 0.00 0.00 0.00 0.00 0.00 0.00 0.00 0.00 0.00 0.00 0.02 0.00 0.01 0.02 0.07 0.09 0.17 0.08 0.07 0.06 0.26 0.51 1.20 0.63 0.83 1.41 1.57 0.57 0.44 0.90 0.66 0.58 0.60 1.01 0.62 0.32 0.38 0.66 0.78 0.92 1.06 1.00 0.99 1.49 1.74 1.62 2.58 2.16 1.37 1.69 2.01 1.81 2.16 1.91 1.64 2.38 1.47 1.51 1.45 1.00 1.27 0.81 0.73 0.92 0.51 0.51 0.53 0.85 1.25 1.13 1.15 0.96 0.72 0.59 0.49
0.00 0.00 0.00 0.00 0.00 0.00 0.00 0.00 0.00 0.00 0.00 0.00 0.03 0.00 0.00 0.00 0.00 0.00 0.00 0.00 0.00 0.02 0.04 0.00 0.01 0.08 0.12 0.11 0.08 0.05 0.05 0.07 0.24 0.57 0.17 0.52 0.55 0.65 1.02 1.17 0.43 0.40 0.58 0.77 0.87 0.91 0.43 0.61 1.30 0.90 0.74 1.02 1.26 1.20 1.31 1.49 1.75 1.58 1.57 1.64 2.03 3.14 2.97 3.02 2.91 2.76 1.38 1.32 1.48 1.45 1.41 1.40 0.94 0.88 0.69 0.77 0.80 0.54 1.44 1.21 0.52 0.52 0.76 0.66 0.62 0.62
0.00 0.00 0.00 0.00 0.00 0.00 0.00 0.00 0.00 0.00 0.00 0.02 0.01 0.00 0.00 0.01 0.00 0.00 0.00 0.00 0.01 0.00 0.01 0.00 0.01 0.07 0.12 0.17 0.07 0.02 0.03 0.11 0.11 0.15 0.33 0.44 0.85 0.54 0.43 0.37 0.41 0.46 0.52 0.56 0.32 0.41 1.42 2.01 1.46 1.38 1.44 1.12 1.76 1.61 1.75 1.66 1.44 2.21 3.28 3.64 4.15 3.98 2.24 2.40 2.69 1.63 0.93 1.31 1.59 2.05 1.32 1.36 1.49 0.73 1.24 1.02 0.66 0.82 1.48 1.72 1.21 0.86 0.80 0.69 0.67 0.70
0.00 0.00 0.00 0.00 0.00 0.00 0.00 0.00 0.00 0.00 0.00 0.01 0.00 0.00 0.00 0.00 0.02 0.00 0.00 0.01 0.05 0.01 0.04 0.00 0.01 0.03 0.10 0.11 0.05 0.05 0.13 0.18 0.18 0.16 0.28 0.35 0.51 1.04 0.78 0.52 0.39 0.42 0.37 0.35 0.37 1.39 1.12 2.01 1.18 1.36 1.50 1.53 1.75 1.97 1.28 1.73 2.53 3.83 3.01 4.39 4.03 4.68 3.96 2.78 1.28 1.21 1.90 1.45 1.42 1.69 1.42 1.04 0.98 0.74 0.47 0.52 0.82 1.45 2.26 1.91 1.14 0.89 1.35 0.98 0.43 0.56
0.00 0.00 0.00 0.00 0.00 0.00 0.00 0.00 0.00 0.00 0.01 0.00 0.00 0.00 0.00 0.00 0.00 0.00 0.02 0.00 0.09 0.00 0.04 0.05 0.10 0.02 0.12 0.17 0.20 0.21 0.12 0.25 0.23 0.30 0.31 0.18 0.26 0.35 0.36 0.60 0.45 0.54 0.54 0.48 0.40 0.39 1.01 1.13 1.31 2.10 2.34 2.83 2.66 2.54 2.70 3.30 2.97 2.94 2.48 2.11 3.39 2.88 2.82 2.45 1.85 2.61 1.87 1.06 1.08 1.01 1.20 0.57 1.36 0.83 0.93 1.26 1.48 0.92 2.01 0.88 0.81 0.86 0.63 0.74 0.49 0.38
0.00 0.00 0.00 0.00 0.00 0.00 0.00 0.00 0.00 0.00 0.00 0.00 0.00 0.00 0.00 0.00 0.03 0.01 0.00 0.05 0.06 0.03 0.03 0.03 0.02 0.01 0.18 0.18 0.12 0.26 0.23 0.10 0.24 0.22 0.31 0.17 0.14 0.30 0.26 0.64 0.43 0.60 0.74 1.05 0.85 0.87 1.11 0.95 1.40 2.56 2.56 2.35 3.46 4.43 4.57 3.46 3.40 4.13 3.97 2.24 2.28 1.85 1.55 2.01 2.19 1.74 2.43 1.09 0.54 0.64 0.67 0.52 0.69 0.62 0.59 1.20 2.08 1.37 1.06 0.86 0.91 0.85 0.59 0.42 0.56 0.59
0.01 0.01 0.00 0.00 0.00 0.00 0.00 0.00 0.00 0.00 0.00 0.00 0.00 0.02 0.00 0.02 0.00 0.01 0.05 0.04 0.09 0.01 0.03 0.03 0.01 0.02 0.14 0.27 0.19 0.17 0.10 0.19 0.11 0.18 0.20 0.24 0.23 0.20 0.36 0.53 0.67 0.67 0.70 0.87 0.93 0.91 0.99 1.48 1.77 1.52 1.99 2.00 3.01 3.13 2.86 2.08 1.86 1.63 1.55 1.57 2.45 2.22 2.65 2.97 2.77 2.21 1.24 0.72 1.01 0.76 0.92 0.85 0.62 0.92 1.32 0.75 0.91 0.84 0.91 0.61 0.54 0.77 0.66 0.54 0.30 0.27
0.01 0.02 0.00 0.00 0.00 0.00 0.00 0.00 0.00 0.00 0.00 0.00 0.00 0.02 0.21 0.19 0.02 0.10 0.05 0.03 0.00 0.03 0.08 0.00 0.01 0.03 0.02 0.21 0.41 0.20 0.11 0.16 0.15 0.12 0.13 0.14 0.17 0.21 0.31 0.38 0.60 0.63 0.71 0.94 0.76 0.86 0.78 1.35 1.75 0.90 1.88 2.36 2.03 3.00 2.93 2.36 1.71 1.26 1.00 1.52 1.08 1.78 2.57 1.93 2.18 1.93 1.56 0.84 0.52 0.60 0.74 0.80 1.32 1.30 0.73 1.00 0.87 0.66 0.63 0.64 0.59 0.41 0.35 0.42 0.40 0.29
0.01 0.01 0.00 0.00 0.00 0.00 0.00 0.00 0.02 0.01 0.00 0.00 0.03 0.08 0.08 0.17 0.07 0.02 0.07 0.02 0.06 0.02 0.02 0.05 0.02 0.05 0.23 0.21 0.25 0.44 0.19 0.16 0.13 0.38 0.33 0.13 0.14 0.15 0.22 0.42 0.41 0.65 0.61 0.68 1.79 2.52 1.06 1.19 1.84 1.97 1.58 1.21 1.11 1.57 1.56 1.87 1.10 1.00 1.80 2.03 2.01 2.10 1.87 3.32 2.14 1.49 1.30 1.14 0.48 0.78 1.23 1.44 1.70 0.78 0.64 0.53 0.59 0.86 0.64 0.42 0.38 0.43 0.29 0.32 0.24 0.21
0.07 0.11 0.01 0.00 0.01 0.00 0.00 0.00 0.01 0.02 0.01 0.01 0.00 0.00 0.08 0.11 0.07 0.02 0.05 0.05 0.03 0.18 0.07 0.05 0.01 0.09 0.15 0.67 0.39 0.47 0.30 0.14 0.11 0.25 0.48 0.49 0.21 0.25 0.25 0.27 0.74 1.28 1.87 1.33 1.02 0.95 1.59 2.55 1.79 1.23 0.85 0.84 0.92 2.00 2.74 1.30 0.98 1.39 1.98 2.30 1.91 1.56 1.91 1.77 1.91 1.60 1.23 1.08 0.79 1.43 2.21 1.56 0.76 0.70 0.33 0.59 0.59 0.37 0.48 0.46 0.36 0.50 0.34 0.16 0.27 0.14
0.01 0.02 0.01 0.00 0.00 0.00 0.00 0.00 0.00 0.00 0.01 0.01 0.00 0.00 0.03 0.02 0.00 0.10 0.24 0.03 0.15 0.08 0.06 0.05 0.06 0.36 0.92 0.98 0.57 0.27 0.19 0.07 0.17 0.31 0.29 0.39 0.77 0.66 0.72 0.70 0.55 0.91 0.80 1.40 1.34 1.50 2.18 2.33 1.07 0.78 0.65 0.84 0.92 2.08 2.36 1.85 1.52 1.21 1.81 1.37 2.11 3.19 2.30 2.23 1.91 1.68 1.37 1.29 1.22 1.72 1.25 0.98 0.40 0.88 0.42 0.46 0.29 0.32 0.28 0.49 0.65 0.25 0.36 0.18 0.12 0.35
0.01 0.12 0.00 0.01 0.00 0.00 0.00 0.00 0.00 0.00 0.13 0.18 0.00 0.05 0.02 0.01 0.02 0.04 0.00 0.01 0.00 0.00 0.04 0.01 0.12 0.32 0.32 1.35 0.57 0.62 0.27 0.26 0.27 0.36 0.21 0.39 0.59 1.00 1.27 0.77 0.76 1.07 1.69 1.42 1.35 0.87 1.55 1.26 1.08 0.53 0.44 0.50 1.55 1.87 2.15 1.85 1.26 1.53 1.25 0.85 1.32 2.23 1.13 2.20 1.75 1.69 1.43 1.27 0.88 1.40 0.79 0.43 0.52 0.33 0.37 0.36 0.31 0.52 0.53 0.64 0.53 0.35 0.30 0.27 0.20 0.13
0.06 0.23 0.01 0.02 0.00 0.00 0.00 0.00 0.00 0.00 0.00 0.00 0.02 0.03 0.00 0.00 0.02 0.02 0.12 0.04 0.01 0.02 0.13 0.03 0.09 0.56 0.10 1.20 1.17 0.74 0.55 1.05 0.95 0.56 0.22 0.45 0.72 0.68 0.81 1.59 1.47 1.90 1.48 0.98 0.92 1.31 1.45 1.32 0.64 0.90 0.82 0.51 0.76 1.42 1.77 0.82 0.80 1.42 1.10 1.09 2.85 2.64 2.02 1.48 1.48 1.72 1.66 0.85 0.44 0.61 0.29 0.30 0.24 0.20 0.38 0.35 0.55 0.67 0.77 0.54 0.55 0.58 0.59 0.23 0.37 0.45
0.01 0.09 0.03 0.00 0.00 0.00 0.00 0.00 0.00 0.00 0.00 0.00 0.07 0.00 0.02 0.06 0.05 0.03 0.00 0.03 0.02 0.01 0.09 0.08 0.12 0.11 0.15 0.58 0.57 1.15 0.67 1.00 1.06 0.77 0.36 0.30 0.37 0.49 0.86 1.03 1.38 2.26 2.19 2.15 1.66 1.49 1.21 0.92 1.07 1.03 0.97 0.94 1.05 1.77 1.21 0.77 0.45 0.32 0.51 3.23 3.40 3.40 1.92 2.54 2.29 1.62 1.36 0.99 1.14 0.66 0.37 0.31 0.29 0.36 0.56 0.98 1.06 1.08 0.57 0.43 0.37 0.21 0.24 0.30 0.39 0.37
0.00 0.02 0.07 0.00 0.00 0.02 0.00 0.00 0.02 0.00 0.00 0.00 0.00 0.00 0.00 0.00 0.05 0.08 0.02 0.20 0.01 0.18 0.04 0.22 0.12 0.28 0.16 0.43 0.23 0.39 0.24 0.34 0.32 0.44 0.42 0.42 0.40 0.60 1.28 0.96 0.93 1.36 1.56 1.43 1.46 1.72 1.89 2.06 1.45 1.32 1.14 1.35 1.55 1.04 0.92 0.64 0.40 0.56 0.75 1.53 2.00 1.07 1.30 1.08 1.17 1.57 1.45 0.86 0.77 0.45 0.31 0.18 0.34 0.33 0.45 0.59 0.86 0.98 0.54 0.49 0.24 0.22 0.18 0.10 0.28 0.13
0.03 0.02 0.11 0.06 0.00 0.00 0.04 0.00 0.01 0.01 0.04 0.00 0.00 0.00 0.01 0.01 0.03 0.01 0.10 0.03 0.19 0.13 0.09 0.12 0.16 0.49 0.49 0.19 0.14 0.27 0.30 0.36 0.56 0.71 0.79 0.71 0.82 0.94 1.10 1.45 1.37 1.49 1.33 1.15 0.67 0.94 1.05 0.60 0.75 0.70 0.69 1.31 1.04 1.25 1.53 1.39 0.66 0.65 0.83 1.03 1.25 0.81 1.14 1.32 1.55 1.37 1.14 1.37 1.20 0.44 0.22 0.16 0.12 0.16 0.38 0.41 0.66 0.57 0.34 0.36 0.39 0.52 0.36 0.34 0.36 0.19
0.01 0.00 0.03 0.01 0.03 0.01 0.01 0.00 0.01 0.00 0.00 0.00 0.01 0.05 0.05 0.09 0.16 0.10 0.10 0.00 0.08 0.04 0.11 0.10 0.19 0.57 0.30 0.24 0.32 0.36 0.50 0.51 0.57 0.61 0.82 1.04 1.17 1.03 1.50 1.37 1.45 1.61 1.21 0.98 0.81 0.67 1.12 0.85 0.63 1.22 0.96 0.68 0.74 0.95 1.67 1.13 1.24 1.50 0.88 1.37 0.70 1.03 1.08 0.83 0.86 0.77 0.75 1.32 1.23 0.92 0.99 0.70 0.34 0.33 0.49 0.32 0.37 0.36 0.40 0.35 0.27 0.19 0.17 0.17 0.19 0.30
0.03 0.02 0.07 0.01 0.11 0.07 0.02 0.02 0.00 0.00 0.00 0.00 0.00 0.02 0.00 0.04 0.01 0.14 0.19 0.27 0.09 0.07 0.04 0.23 0.10 0.52 0.42 0.53 0.60 0.44 0.54 0.49 0.67 1.04 0.80 0.58 0.77 0.97 0.81 0.89 0.98 0.74 0.90 0.81 0.92 0.70 0.99 0.75 0.43 0.58 0.51 0.78 1.05 0.93 1.11 1.46 1.74 1.42 1.97 1.45 1.01 0.50 1.12 1.03 1.71 1.74 1.65 1.83 1.52 1.31 0.66 0.39 0.33 0.27 0.17 0.20 0.18 0.26 0.30 0.22 0.20 0.15 0.14 0.13 0.17 0.43
0.00 0.01 0.01 0.04 0.15 0.03 0.02 0.00 0.00 0.00 0.00 0.00 0.00 0.00 0.00 0.06 0.09 0.09 0.13 0.21 0.13 0.12 0.07 0.18 0.07 0.90 0.32 0.56 0.99 0.61 0.45 0.49 0.48 0.62 0.62 0.78 0.74 0.55 0.74 0.51 1.16 1.14 0.96 0.68 1.44 1.46 0.91 0.42 0.32 0.58 0.59 0.58 1.39 1.67 0.92 0.76 1.20 1.65 1.06 1.15 1.41 1.84 1.45 1.79 2.24 2.02 1.91 1.42 1.44 2.09 1.44 1.46 1.37 1.03 0.53 0.93 0.47 0.11 0.06 0.14 0.14 0.12 0.10 0.09 0.05 0.19
0.08 0.02 0.01 0.13 0.07 0.18 0.15 0.04 0.01 0.00 0.00 0.01 0.02 0.01 0.00 0.01 0.04 0.10 0.08 0.14 0.01 0.05 0.19 0.15 0.22 0.54 0.54 0.71 0.54 0.48 0.43 0.43 0.69 0.56 0.46 0.74 0.70 0.53 0.41 0.55 0.58 0.64 0.63 0.98 0.95 0.66 0.77 0.89 1.20 1.04 0.75 0.85 1.48 1.36 1.42 1.39 2.32 2.95 1.86 2.06 1.81 1.17 1.45 1.98 1.62 2.15 1.90 2.16 2.28 2.19 1.96 1.86 1.87 1.31 0.97 0.96 0.41 0.44 0.37 0.39 0.24 0.19 0.22 0.27 0.23 0.13
0.05 0.08 0.02 0.09 0.24 0.21 0.23 0.23 0.21 0.12 0.05 0.02 0.02 0.01 0.05 0.02 0.08 0.15 0.05 0.06 0.05 0.07 0.12 0.10 0.59 0.52 0.71 0.64 0.61 0.33 0.33 0.48 0.48 0.49 0.56 1.06 1.13 0.72 0.72 0.99 0.78 0.83 0.63 0.74 1.42 1.07 0.82 0.56 0.61 0.96 1.18 0.89 1.24 1.34 1.37 1.46 2.14 1.58 1.79 1.50 1.49 1.01 1.56 1.61 1.57 2.28 2.39 2.00 2.58 1.49 1.83 2.25 3.08 1.86 1.23 1.20 1.10 0.92 0.96 0.77 0.61 0.61 0.74 0.42 0.51 0.79
0.28 0.05 0.10 0.10 0.28 0.47 0.27 0.24 0.14 0.04 0.03 0.06 0.07 0.05 0.06 0.00 0.03 0.07 0.12 0.15 0.12 0.15 0.11 0.10 0.17 0.65 0.77 0.57 0.43 0.49 0.31 0.57 0.62 0.57 0.41 0.37 0.48 0.49 0.58 0.61 0.72 0.59 0.82 0.86 0.68 1.00 1.01 1.23 1.20 1.56 1.64 2.03 1.67 1.51 2.08 1.61 1.26 1.13 1.82 2.56 1.50 1.06 1.43 1.52 1.20 1.67 1.45 1.82 1.56 2.60 2.38 2.22 2.16 1.99 1.67 0.91 0.71 0.62 0.90 0.96 0.91 0.95 0.62 0.59 0.66 0.70
0.60 0.36 0.17 0.05 0.22 0.11 0.03 0.14 0.03 0.04 0.12 0.11 0.13 0.06 0.02 0.05 0.04 0.08 0.03 0.13 0.26 0.16 0.26 0.23 0.15 0.19 0.45 0.34 0.29 0.42 0.47 0.54 0.59 0.33 0.32 0.46 0.59 0.59 0.51 0.44 0.57 0.87 1.04 1.05 1.01 1.21 1.72 1.39 1.06 1.59 2.03 1.70 1.45 1.02 1.14 1.30 1.55 1.80 2.07 0.77 0.61 1.00 1.32 1.92 2.46 1.78 1.01 1.85 2.45 2.28 2.31 2.31 2.14 2.01 1.72 1.58 1.86 1.01 1.24 1.11 0.88 0.80 1.26 1.08 0.87 0.84
0.22 0.23 0.36 0.32 0.24 0.23 0.11 0.03 0.09 0.05 0.09 0.13 0.11 0.18 0.16 0.11 0.07 0.13 0.10 0.12 0.17 0.11 0.46 0.43 0.50 0.15 0.30 0.32 0.35 0.28 0.20 0.24 0.25 0.31 0.29 0.50 0.45 0.53 0.53 0.68 0.67 0.52 0.54 0.65 1.02 1.19 1.16 1.34 1.13 1.26 1.11 1.01 0.55 0.74 1.42 1.87 1.81 1.62 0.91 0.84 1.21 1.71 1.63 0.85 1.86 1.24 1.15 1.78 1.53 1.08 1.08 1.88 2.22 2.05 1.75 1.70 1.25 1.25 1.06 0.71 0.79 1.02 1.18 0.79 0.64 0.97
0.10 0.36 0.42 0.38 0.39 0.49 0.22 0.15 0.11 0.20 0.17 0.10 0.03 0.16 0.19 0.20 0.20 0.08 0.06 0.12 0.17 0.12 0.12 0.11 0.14 0.21 0.40 0.45 0.31 0.37 0.35 0.39 0.41 0.19 0.28 0.52 0.57 0.46 0.62 0.39 0.31 0.34 0.70 0.75 0.76 0.67 0.60 0.91 0.67 0.43 0.72 1.08 0.96 0.67 0.74 0.92 0.85 1.08 1.30 1.64 0.72 1.13 1.29 1.69 1.27 1.72 1.99 1.72 1.39 1.05 1.66 1.53 1.72 1.45 1.66 1.54 1.19 0.99 1.43 1.22 0.80 0.94 0.79 0.53 0.71 0.88
0.31 0.62 0.14 0.38 0.37 0.31 0.46 0.26 0.22 0.37 0.14 0.17 0.02 0.04 0.04 0.12 0.05 0.07 0.12 0.08 0.07 0.17 0.13 0.02 0.02 0.17 0.34 0.21 0.28 0.38 0.26 0.22 0.18 0.23 0.21 0.24 0.34 0.54 0.37 0.51 0.54 0.35 0.36 0.23 0.35 0.50 1.16 1.14 0.67 0.63 0.81 0.80 1.12 1.00 0.55 0.39 0.51 0.93 0.99 0.76 0.88 1.39 1.03 0.99 0.85 0.96 1.50 1.76 1.94 1.88 1.77 2.18 1.91 1.98 1.69 1.45 1.38 1.96 1.57 1.08 0.91 0.84 1.03 0.98 1.09 0.73
0.14 1.01 0.39 0.77 0.36 0.51 0.45 0.50 0.39 0.49 0.32 0.33 0.21 0.09 0.06 0.22 0.18 0.08 0.18 0.26 0.21 0.28 0.28 0.24 0.04 0.16 0.47 0.21 0.26 0.24 0.22 0.18 0.16 0.19 0.21 0.50 0.30 0.26 0.35 0.24 0.34 0.54 0.37 0.22 0.38 0.49 0.52 0.75 1.64 1.29 1.08 1.06 0.64 0.44 0.34 0.42 0.36 0.65 0.60 0.70 1.04 1.20 1.43 1.30 1.28 1.35 1.67 1.29 1.78 1.97 1.58 1.82 2.20 1.99 2.53 2.34 1.80 2.14 2.20 1.63 1.70 1.13 1.15 1.15 1.45 0.97
0.44 0.20 0.35 0.38 0.34 0.47 0.69 0.57 0.59 0.39 0.44 0.53 0.37 0.18 0.15 0.22 0.20 0.12 0.12 0.13 0.15 0.32 0.72 0.46 0.24 0.15 0.23 0.18 0.21 0.26 0.20 0.22 0.19 0.19 0.19 0.17 0.17 0.11 0.12 0.16 0.24 0.28 0.24 0.49 0.83 0.63 0.66 1.10 0.90 1.25 1.29 0.85 0.48 0.52 0.41 0.45 0.40 0.43 0.45 0.64 0.61 0.85 1.04 1.06 1.30 1.65 1.82 1.65 1.29 1.71 1.56 1.78 1.58 2.02 1.66 1.43 1.38 1.85 1.26 1.23 1.01 1.76 1.35 0.81 1.08 1.09
0.22 0.38 0.54 0.56 0.61 0.46 0.45 0.76 0.75 0.59 0.82 0.50 0.31 0.27 0.12 0.64 0.24 0.06 0.07 0.10 0.09 0.09 0.18 0.33 1.01 0.33 0.19 0.22 0.52 0.39 0.20 0.28 0.22 0.27 0.23 0.18 0.33 0.77 0.52 0.30 0.41 0.45 0.59 0.80 0.73 0.88 0.62 0.40 0.39 0.47 0.63 0.85 1.22 0.90 0.45 1.02 1.82 1.10 0.56 0.84 0.71 0.90 1.21 1.06 0.86 0.76 1.10 1.45 1.68 1.43 1.26 1.70 1.24 1.16 1.20 1.86 1.63 1.56 1.54 1.38 1.57 1.24 2.32 1.30 0.78 0.76
0.17 0.22 0.41 0.61 0.57 0.65 0.77 0.81 0.66 0.78 0.60 0.71 0.40 0.19 0.20 0.23 0.15 0.10 0.08 0.05 0.11 0.10 0.12 0.15 0.18 0.29 0.64 0.63 0.81 1.29 1.61 1.10 0.69 0.89 0.75 0.49 0.32 0.34 0.64 0.75 0.41 0.28 0.19 0.34 0.30 0.52 0.69 0.64 0.83 0.62 0.33 0.23 0.41 0.84 0.37 0.31 0.36 0.54 0.49 0.34 0.48 0.68 1.26 1.08 0.72 0.63 0.74 0.73 1.19 1.15 1.32 1.34 1.14 1.13 1.50 1.92 1.72 1.81 1.61 1.54 1.31 1.88 2.30 1.75 1.32 0.86
0.09 0.14 0.27 0.43 0.35 0.73 0.69 0.77 0.56 0.51 0.79 0.59 0.67 0.69 0.46 0.40 0.13 0.22 0.17 0.12 0.05 0.05 0.10 0.07 0.09 0.24 0.29 0.45 0.46 0.58 0.90 1.12 1.09 1.26 1.58 1.28 0.80 0.93 1.07 1.26 1.18 1.06 1.13 1.27 1.04 1.36 1.62 1.30 1.25 1.39 1.35 1.33 0.50 0.62 0.27 0.45 0.39 0.33 0.40 0.45 0.71 0.88 0.84 0.98 1.09 1.09 0.75 0.87 1.03 1.11 1.48 1.87 1.97 1.56 1.63 1.53 1.60 1.68 1.78 1.34 1.41 1.26 0.89 1.03 1.07 0.69
0.16 0.31 0.16 0.28 0.36 0.42 0.46 0.60 0.68 0.78 0.48 0.46 0.37 0.47 0.89 0.43 0.24 0.17 0.28 0.28 0.20 0.10 0.03 0.03 0.05 0.07 0.09 0.15 0.23 0.28 0.33 0.45 0.63 0.93 1.07 1.04 1.38 1.37 0.90 0.83 0.90 1.54 1.76 1.65 1.57 1.65 1.47 1.38 1.35 1.34 1.42 1.07 0.78 1.07 0.85 0.43 0.61 0.55 0.58 0.71 0.51 0.34 0.46 0.52 0.71 1.23 1.28 1.27 1.35 1.42 1.28 1.64 1.60 1.64 1.50 1.59 1.46 1.37 1.13 1.19 1.27 1.45 1.11 0.94 0.78 0.74
0.06 0.29 0.36 0.31 0.44 0.43 0.72 0.54 0.74 0.62 0.75 0.43 0.30 0.48 0.33 0.51 0.25 0.29 0.21 0.31 0.34 0.35 0.14 0.07 0.06 0.05 0.10 0.14 0.14 0.19 0.36 0.36 0.53 0.75 0.69 0.70 0.72 0.70 0.77 0.56 0.55 0.73 0.94 1.36 1.24 1.50 1.39 1.24 1.35 1.23 0.75 0.87 0.70 0.83 0.90 1.84 1.08 0.55 0.50 0.58 0.57 0.70 0.67 0.71 0.62 1.19 1.67 2.23 2.11 2.04 2.05 1.74 1.47 1.81 1.54 1.44 1.50 1.56 1.67 1.62 1.97 2.01 2.28 1.74 1.06 0.69
0.16 0.25 0.50 0.17 0.80 0.30 0.44 0.44 0.40 0.46 0.53 0.31 0.34 0.06 0.45 0.32 0.27 0.39 0.12 0.27 0.37 0.23 0.24 0.21 0.17 0.11 0.12 0.11 0.14 0.11 0.27 0.32 0.34 0.54 0.42 0.42 0.54 0.67 0.65 0.67 0.64 0.63 0.65 0.72 0.63 0.46 0.39 0.30 0.27 0.35 0.28 0.67 0.88 0.62 0.50 0.60 0.70 0.44 0.34 0.69 0.25 0.27 0.46 0.51 1.12 0.90 1.35 1.80 1.75 1.83 2.21 2.54 2.07 1.95 2.26 2.39 1.89 1.61 1.41 1.89 1.94 1.86 1.47 1.35 1.47 1.61
0.32 0.35 0.27 0.34 0.24 0.32 0.61 0.55 0.43 0.23 0.75 0.27 0.18 0.21 0.21 0.25 0.25 0.38 0.23 0.30 0.26 0.19 0.16 0.14 0.19 0.17 0.24 0.17 0.19 0.18 0.12 0.37 0.18 0.29 0.29 0.39 0.39 0.55 0.75 0.73 0.74 0.72 0.69 0.50 0.43 0.31 0.28 0.17 0.05 0.05 0.06 0.09 0.10 0.09 0.09 0.20 0.21 0.46 0.93 0.44 0.53 0.46 0.28 0.52 1.24 1.56 1.91 1.32 0.86 0.95 1.45 2.23 1.94 3.19 3.17 3.00 2.51 2.22 2.26 2.23 2.14 1.79 2.22 1.64 1.50 1.29
0.18 0.15 0.13 0.35 0.29 0.48 0.24 0.48 0.42 0.32 0.10 0.13 0.16 0.12 0.21 0.20 0.19 0.38 0.57 0.44 0.15 0.15 0.14 0.10 0.12 0.18 0.22 0.23 0.23 0.54 0.20 0.15 0.09 0.13 0.13 0.14 0.17 0.22 0.28 0.39 0.58 0.65 0.70 0.55 0.35 0.24 0.17 0.17 0.12 0.06 0.12 0.04 0.09 0.41 0.63 0.34 0.49 0.53 0.43 0.33 0.17 0.13 0.34 0.48 0.16 0.22 0.66 0.25 0.18 0.34 0.42 0.91 1.18 1.42 1.73 2.22 2.66 2.55 2.48 2.43 2.46 2.43 2.25 1.81 1.56 1.37
0.10 0.12 0.14 0.13 0.27 0.53 0.53 0.46 0.38 0.86 0.62 0.17 0.06 0.06 0.42 0.10 0.22 0.33 0.48 0.17 0.17 0.17 0.10 0.09 0.12 0.17 0.18 0.16 0.17 0.19 0.26 0.19 0.14 0.13 0.20 0.26 0.18 0.16 0.13 0.18 0.23 0.30 0.32 0.29 0.33 0.36 0.30 0.27 0.23 0.15 0.11 0.06 0.05 0.03 0.15 0.23 0.26 0.12 0.19 0.06 0.03 0.02 0.03 0.11 0.13 0.18 0.60 0.17 0.19 0.28 0.31 0.34 0.51 0.84 1.22 1.47 1.84 1.81 1.73 1.80 1.91 1.62 1.50 1.60 1.61 1.57
0.15 0.25 0.36 0.20 0.23 0.22 0.21 0.32 0.52 0.49 1.36 0.08 0.23 0.14 0.47 0.13 0.47 0.25 0.16 0.18 0.09 0.10 0.08 0.06 0.06 0.07 0.07 0.09 0.11 0.16 0.20 0.23 0.25 0.27 0.26 0.23 0.19 0.18 0.20 0.12 0.11 0.15 0.16 0.17 0.21 0.23 0.23 0.25 0.23 0.20 0.18 0.15 0.07 0.04 0.05 0.16 0.08 0.03 0.03 0.05 0.05 0.05 0.04 0.09 0.13 0.27 0.22 0.07 0.20 0.34 0.35 0.32 0.28 0.50 0.66 0.65 0.98 1.12 1.16 1.28 1.28 1.41 1.30 1.25 1.24 1.16
0.57 0.41 0.30 0.17 0.20 0.26 0.48 0.34 0.45 0.47 0.30 0.12 0.10 0.19 0.31 0.15 0.30 0.38 0.20 0.17 0.10 0.08 0.08 0.07 0.05 0.04 0.07 0.07 0.07 0.13 0.14 0.11 0.18 0.21 0.20 0.18 0.19 0.17 0.20 0.17 0.10 0.11 0.10 0.07 0.07 0.07 0.07 0.18 0.24 0.19 0.18 0.17 0.18 0.18 0.18 0.07 0.14 0.20 0.38 1.20 1.88 1.05 0.52 0.13 0.24 0.11 0.25 0.53 0.26 0.21 0.24 0.24 0.25 0.19 0.30 0.71 0.80 0.68 0.88 0.91 1.00 1.01 1.11 1.06 0.98 0.99
0.21 0.26 0.13 0.22 0.19 0.34 0.29 0.35 0.38 0.17 0.19 0.14 0.09 0.14 0.15 0.21 0.16 0.22 0.29 0.30 0.32 0.22 0.09 0.06 0.09 0.09 0.12 0.09 0.09 0.14 0.13 0.09 0.11 0.14 0.16 0.17 0.15 0.15 0.15 0.14 0.10 0.11 0.08 0.08 0.07 0.06 0.05 0.04 0.08 0.12 0.14 0.14 0.13 0.11 0.15 0.14 0.13 0.18 0.46 0.51 0.90 0.15 0.11 0.09 0.04 0.12 0.27 0.53 0.38 0.21 0.20 0.31 0.48 0.35 0.27 0.39 0.37 0.58 0.61 0.70 0.64 0.70 0.85 0.91 0.99 0.83
0.23 0.17 0.06 0.12 0.19 0.12 0.22 0.15 0.15 0.15 0.13 0.19 0.09 0.11 0.10 0.11 0.15 0.20 0.22 0.26 0.30 0.39 0.28 0.21 0.16 0.22 0.21 0.13 0.14 0.17 0.12 0.07 0.05 0.06 0.05 0.05 0.06 0.05 0.06 0.05 0.07 0.07 0.08 0.08 0.08 0.06 0.06 0.06 0.06 0.09 0.13 0.12 0.12 0.13 0.10 0.10 0.11 0.17 0.42 1.27 0.44 0.13 0.22 0.26 0.52 0.52 0.18 0.23 0.39 0.40 0.39 0.43 0.31 0.46 0.34 0.33 0.30 0.29 0.29 0.40 0.51 0.58 0.58 0.58 0.78 0.76
0.33 0.03 0.09 0.07 0.12 0.05 0.26 0.40 0.09 0.17 0.12 0.09 0.14 0.12 0.07 0.05 0.09 0.12 0.15 0.19 0.30 0.41 0.39 0.25 0.32 0.36 0.32 0.30 0.32 0.17 0.10 0.04 0.02 0.03 0.03 0.03 0.02 0.03 0.03 0.02 0.05 0.03 0.02 0.01 0.02 0.04 0.05 0.07 0.09 0.08 0.08 0.11 0.09 0.09 0.09 0.15 0.14 0.12 0.13 0.35 0.57 0.35 0.31 0.36 0.23 0.26 0.31 0.25 0.25 0.35 0.30 0.47 0.29 0.13 0.17 0.36 0.39 0.20 0.16 0.14 0.12 0.14 0.26 0.27 0.32 0.47
0.18 0.04 0.06 0.05 0.10 0.12 0.30 0.24 0.14 0.08 0.09 0.06 0.05 0.08 0.05 0.04 0.04 0.06 0.11 0.15 0.23 0.36 0.44 0.47 0.39 0.37 0.30 0.22 0.17 0.09 0.06 0.03 0.03 0.01 0.02 0.02 0.03 0.02 0.01 0.02 0.05 0.06 0.02 0.01 0.01 0.00 0.01 0.02 0.04 0.05 0.07 0.06 0.06 0.06 0.08 0.12 0.16 0.16 0.32 0.27 0.16 0.27 0.25 0.31 0.20 0.24 0.31 0.30 0.26 0.16 0.26 0.29 0.12 0.19 0.17 0.19 0.14 0.23 0.20 0.14 0.11 0.10 0.09 0.15 0.24 0.33
0.37 0.02 0.05 0.09 0.13 0.19 0.14 0.17 0.24 0.18 0.14 0.05 0.06 0.06 0.04 0.03 0.03 0.02 0.03 0.14 0.20 0.36 0.38 0.44 0.46 0.42 0.34 0.28 0.18 0.11 0.08 0.06 0.03 0.02 0.00 0.00 0.01 0.03 0.02 0.02 0.02 0.05 0.08 0.06 0.02 0.01 0.01 0.02 0.03 0.09 0.12 0.11 0.11 0.15 0.16 0.21 0.27 0.19 0.19 0.22 0.50 0.41 0.37 0.30 0.22 0.36 0.34 0.29 0.34 0.19 0.13 0.14 0.19 0.17 0.15 0.21 0.11 0.07 0.11 0.24 0.14 0.13 0.11 0.15 0.23 0.34
0.10 0.20 0.07 0.07 0.16 0.14 0.33 0.41 0.12 0.28 0.22 0.27 0.08 0.12 0.08 0.10 0.10 0.09 0.05 0.12 0.10 0.19 0.31 0.39 0.44 0.43 0.45 0.38 0.27 0.23 0.14 0.07 0.06 0.05 0.06 0.08 0.15 0.13 0.19 0.09 0.05 0.03 0.03 0.05 0.08 0.06 0.04 0.04 0.10 0.12 0.10 0.11 0.09 0.11 0.24 0.30 0.35 0.32 0.22 0.21 0.22 0.31 0.27 0.30 0.32 0.36 0.32 0.34 0.32 0.25 0.19 0.12 0.09 0.10 0.10 0.18 0.14 0.13 0.15 0.08 0.09 0.12 0.09 0.12 0.05 0.06
0.19 0.25 0.18 0.12 0.27 0.28 0.16 0.15 0.17 0.09 0.10 0.11 0.12 0.06 0.05 0.05 0.07 0.09 0.07 0.07 0.06 0.05 0.11 0.17 0.22 0.23 0.22 0.23 0.22 0.22 0.19 0.14 0.16 0.13 0.11 0.07 0.17 0.16 0.17 0.32 0.17 0.03 0.03 0.02 0.02 0.04 0.09 0.15 0.16 0.12 0.09 0.07 0.08 0.11 0.29 0.37 0.53 0.29 0.30 0.31 0.29 0.40 0.69 0.36 0.35 0.36 0.35 0.31 0.35 0.35 0.32 0.17 0.18 0.14 0.20 0.11 0.13 0.10 0.13 0.16 0.11 0.11 0.08 0.06 0.06 0.04